[[{"header":{"parameterUnit":"m.s-1","parameterCategory":1,"la1":30.2991,"la2":30.254,"lo1":-89.0895,"lo2":-89.0444,"dy":0.0017,"dx":0.0017,"nx":28,"ny":28,"refTime":"2025-05-28T21:00:00:Z","depth":0,"parameterNumber":2,"parameterNumberName":"U-component_of_WINDS"},"data":[0,0,0,0,0,0,0,0,0,0,0,0,0,0,0,0,0,0,0,0,0,0,0,0,0,0,0,0,0,0,0,0,0,0,0,0,0,0,0,0,0,0,0,0,0,0,0,0,0,0,0,0,0,0,0,0,0,0,5.0163,5.0164,0,5.0313,5.0314,5.0316,5.0275,5.0272,5.0269,5.0266,5.0421,5.0428,5.0434,0,0,0,0,0,0,0,0,0,0,0,0,0,4.9839,4.9845,5.0163,5.0164,5.0166,5.0312,5.0314,5.0316,5.0276,5.0272,5.0268,5.0265,5.0419,5.0427,5.0435,0,0,0,0,0,0,0,0,0,0,0,0,0,4.9983,4.9847,5.0162,5.0164,5.0165,5.0312,5.0314,5.0317,5.0276,5.0272,5.0267,5.0263,5.0416,5.0426,5.0436,5.0591,0,0,5.0468,5.0472,0,0,0,0,0,0,0,0,4.9975,4.9995,5.0162,5.0164,5.0166,5.027,5.0257,5.0409,5.0278,5.0234,5.0266,5.0261,5.0375,5.0388,5.0426,5.0598,5.0605,5.0469,5.0475,5.048,5.0483,0,0,0,0,0,0,0,4.9965,4.9988,5.0222,5.0164,5.0167,5.0156,5.0171,5.0285,5.0328,5.0238,5.0235,5.0253,5.0375,5.0416,5.0429,5.0607,5.0469,5.0478,5.0484,5.0488,5.0908,5.0912,0,0,0,0,0,0,4.9954,4.998,5.0217,5.0226,5.0057,5.0165,5.0183,5.0241,5.0327,5.0335,5.0257,5.0251,5.0401,5.0417,5.0435,5.0617,5.048,5.0489,5.0495,5.0903,5.0909,5.0914,0,0,0,0,0,0,4.9947,4.9975,5.0211,5.0103,5.0132,5.0176,5.0242,5.0247,5.0288,5.0341,5.0349,5.0292,5.0398,5.042,5.0551,5.0622,5.0494,5.0503,5.0897,5.0905,5.0911,5.0986,0,0,0,0,0,0,4.9938,4.9973,5.0033,5.0104,5.0138,5.0326,5.0247,5.0253,5.0306,5.0299,5.0376,5.0384,5.0396,5.0536,5.0561,5.0634,5.0512,5.0891,5.09,5.0909,5.0977,5.0995,5.101,0,0,0,0,0,4.9926,5.005,5.0036,5.0065,5.0214,5.033,5.0349,5.036,5.0312,5.0372,5.0405,5.0381,5.0611,5.0549,5.0578,5.0655,5.0886,5.0898,5.0908,5.097,5.0991,5.1009,0,0,0,0,0,0,4.9987,5.0059,5.0045,5.0195,5.0257,5.0323,5.0399,5.0384,5.046,5.0451,5.0462,5.0479,5.0612,5.0647,5.0578,5.0806,5.0741,5.0759,5.0778,5.0799,5.0815,5.0802,5.052,0,0,0,0,0,5.0017,5.0106,5.0164,5.0291,5.0322,5.0355,5.0407,5.0409,5.0473,5.0499,5.0543,5.0606,5.0691,5.0748,5.083,5.0983,5.0996,5.1049,5.1066,5.1079,5.1093,5.1171,5.1194,5.095,5.095,5.095,0,0,5.0082,5.0132,5.0188,5.0304,5.0352,5.0442,5.0378,5.0477,5.0543,5.0515,5.0639,5.0673,5.0744,5.0885,5.0949,5.0918,5.1163,5.1093,5.1103,5.111,5.1185,5.1208,5.1228,5.0958,5.0956,5.0955,0,0,5.0244,5.0293,5.0401,5.045,5.0522,5.0543,5.0569,5.0637,5.0657,5.0783,5.0762,5.0841,5.099,5.1039,5.1084,5.1261,5.124,5.1288,5.1372,5.1448,5.1467,5.1484,5.1543,5.1565,5.1302,5.1302,5.1302,0,5.0315,5.045,5.0459,5.0558,5.0608,5.0586,5.0694,5.0741,5.0837,5.0871,5.0835,5.1017,5.1064,5.1214,5.1256,5.1295,5.1323,5.1278,5.1464,5.1481,5.1497,5.1553,5.1576,5.1307,5.1306,5.1306,5.1306,0,5.0531,5.0625,5.0703,5.0794,5.0853,5.0957,5.098,5.1039,5.1036,5.106,5.1185,5.124,5.133,5.1367,5.1366,5.1515,5.1493,5.1461,5.1395,5.1525,5.1577,5.1599,5.1314,5.1312,5.1311,5.131,0,0,5.0737,5.0828,5.0857,5.0895,5.0972,5.1044,5.1145,5.1232,5.128,5.1347,5.1429,5.1554,5.1523,5.1574,5.1578,5.1646,5.1776,5.1604,5.1606,5.163,5.1938,5.1959,5.1984,5.1764,5.1768,5.1772,5.1931,0,5.0902,5.1079,5.1088,5.1248,5.1332,5.131,5.1398,5.1453,5.1478,5.1552,5.1579,5.1665,5.162,5.1649,5.1715,5.1746,5.1837,5.1735,5.1838,5.1842,5.1817,5.2013,5.2037,5.2184,5.1952,5.1956,5.1958,0,5.112,5.1189,5.1357,5.1417,5.1453,5.1531,5.1609,5.1681,5.1742,5.1755,5.181,5.1804,5.1905,5.1837,5.1975,5.1905,5.1948,5.1969,5.1975,5.1982,5.1906,5.2022,5.2233,5.2253,5.1992,5.1989,5.1987,0,5.1246,5.1383,5.15,5.1534,5.1609,5.1663,5.1697,5.1754,5.1804,5.1872,5.1904,5.1985,5.2028,5.2089,5.2104,5.2054,5.224,5.2175,5.225,5.225,5.2288,5.2285,5.2505,5.2322,5.2322,5.2322,5.2321,0,5.1428,5.1531,5.1557,5.1629,5.1741,5.1751,5.1862,5.1892,5.1942,5.2017,5.2005,5.2076,5.2092,5.2166,5.2179,5.2288,5.2309,5.232,5.2321,5.2319,5.2317,5.2345,5.2333,5.2328,5.2326,5.2325,5.2324,0,5.1589,5.1611,5.1736,5.1794,5.1811,5.1892,5.1941,5.2009,5.2031,5.2126,5.2149,5.2183,5.2269,5.229,5.2393,5.2401,5.2529,5.2523,5.2507,5.2506,5.2579,5.257,5.2822,5.2853,5.2653,5.2655,5.2657,0,5.1702,5.1779,5.1845,5.1894,5.1929,5.2009,5.2059,5.207,5.2123,5.2196,5.2254,5.2338,5.2405,5.2543,5.2576,5.2654,5.2647,5.273,5.2658,5.2652,5.2643,5.2636,5.2642,5.2742,5.2744,5.2746,5.2747,0,5.1898,5.1904,5.1976,5.2052,5.2111,5.2172,5.2229,5.227,5.2289,5.2348,5.2435,5.2487,5.259,5.2672,5.2749,5.2783,5.2767,5.277,5.279,5.2787,5.2773,5.2777,5.254,5.2763,5.2762,5.2761,5.276,5.2759,5.2035,5.2101,5.2156,5.2236,5.228,5.2333,5.2397,5.2426,5.2498,5.2581,5.2584,5.2677,5.2733,5.2835,5.2872,5.2944,5.2919,5.295,5.2958,5.2964,5.2968,5.2764,5.2959,5.2959,5.2958,5.2958,5.2958,0,5.2227,5.226,5.2334,5.2413,5.2475,5.2454,5.2516,5.2569,5.265,5.2703,5.2769,5.2866,5.2944,5.2983,5.306,5.311,5.3105,5.313,5.3124,5.3131,5.2989,5.2961,5.3132,5.3132,5.3132,5.3132,5.3132,5.3132,5.2334,5.2442,5.2454,5.2583,5.2616,5.2706,5.2742,5.279,5.2831,5.294,5.3004,5.3028,5.3075,5.3155,5.3225,5.3234,5.3261,5.3289,5.3294,5.316,5.3142,5.3125,5.3098,5.3296,5.3296,5.343,5.3431,5.3432]},{"header":{"parameterUnit":"m.s-1","parameterCategory":1,"la1":30.2991,"la2":30.254,"lo1":-89.0895,"lo2":-89.0444,"dy":0.0017,"dx":0.0017,"nx":28,"ny":28,"refTime":"2025-05-28T21:00:00:Z","depth":0,"parameterNumber":3,"parameterNumberName":"V-component_of_WINDS"},"data":[0,0,0,0,0,0,0,0,0,0,0,0,0,0,0,0,0,0,0,0,0,0,0,0,0,0,0,0,0,0,0,0,0,0,0,0,0,0,0,0,0,0,0,0,0,0,0,0,0,0,0,0,0,0,0,0,0,0,3.5302,3.5303,0,3.5429,3.543,3.5431,3.5407,3.5404,3.5402,3.54,3.5526,3.5532,3.5537,0,0,0,0,0,0,0,0,0,0,0,0,0,3.5033,3.5038,3.5301,3.5303,3.5305,3.5428,3.543,3.5432,3.5407,3.5404,3.5401,3.5399,3.5525,3.5531,3.5538,0,0,0,0,0,0,0,0,0,0,0,0,0,3.5154,3.504,3.5301,3.5307,3.5309,3.5428,3.543,3.5432,3.5408,3.5404,3.5401,3.5397,3.5523,3.5531,3.5539,3.5659,0,0,3.5564,3.5568,0,0,0,0,0,0,0,0,3.5147,3.5164,3.5305,3.5307,3.5309,3.5398,3.5382,3.5508,3.5408,3.537,3.54,3.5396,3.5486,3.5497,3.5529,3.5664,3.567,3.5565,3.557,3.5573,3.5576,0,0,0,0,0,0,0,3.5139,3.5158,3.5352,3.5307,3.531,3.5302,3.5316,3.5406,3.5446,3.5373,3.5372,3.5387,3.5487,3.5521,3.5531,3.5672,3.5564,3.5572,3.5577,3.558,3.591,3.5914,0,0,0,0,0,0,3.5129,3.5151,3.5348,3.5355,3.5218,3.531,3.5325,3.5373,3.5445,3.5453,3.539,3.5386,3.5508,3.5522,3.5536,3.568,3.5573,3.5581,3.5586,3.5906,3.5911,3.5915,0,0,0,0,0,0,3.5123,3.5147,3.5342,3.5253,3.5278,3.5318,3.5373,3.5377,3.5411,3.5458,3.5464,3.5418,3.5506,3.5524,3.5628,3.5684,3.5585,3.5592,3.5902,3.5908,3.5913,3.5969,0,0,0,0,0,0,3.5116,3.5145,3.5192,3.5254,3.5282,3.5434,3.5376,3.5382,3.5426,3.5421,3.5485,3.5492,3.5505,3.5616,3.5636,3.5693,3.5599,3.5897,3.5904,3.5911,3.5962,3.5976,3.5988,0,0,0,0,0,3.5106,3.5202,3.5194,3.5218,3.5342,3.5437,3.5453,3.5467,3.5431,3.5477,3.5507,3.549,3.5674,3.5627,3.5649,3.571,3.5893,3.5902,3.591,3.5957,3.5973,3.5987,0,0,0,0,0,0,3.5145,3.5211,3.5203,3.5322,3.5375,3.5433,3.5493,3.5484,3.5547,3.554,3.5552,3.5567,3.5672,3.5701,3.5647,3.5828,3.5779,3.5792,3.5806,3.5822,3.5834,3.5825,3.5605,0,0,0,0,0,3.5167,3.524,3.5293,3.5394,3.542,3.5452,3.5494,3.55,3.5554,3.5576,3.5613,3.5665,3.5734,3.578,3.5846,3.5966,3.5979,3.6019,3.6031,3.6041,3.6053,3.6117,3.6135,3.5943,3.5943,3.5943,0,0,3.5214,3.5259,3.5304,3.5402,3.5444,3.5517,3.5471,3.5551,3.5606,3.5587,3.5688,3.5717,3.5776,3.5888,3.5939,3.5915,3.6109,3.6052,3.606,3.6066,3.6127,3.6146,3.6162,3.5949,3.5948,3.5947,0,0,3.5337,3.538,3.5467,3.5509,3.5572,3.5593,3.5613,3.5674,3.5692,3.5793,3.5781,3.5845,3.5964,3.6007,3.6044,3.6181,3.6168,3.6202,3.6268,3.633,3.6345,3.6359,3.6407,3.6424,3.6214,3.6214,3.6214,0,3.5388,3.55,3.5513,3.5595,3.5637,3.5625,3.5712,3.5752,3.5833,3.5862,3.5835,3.5984,3.6023,3.6144,3.6177,3.6208,3.6231,3.6195,3.6342,3.6356,3.6369,3.6414,3.6432,3.6217,3.6217,3.6217,3.6216,0,3.5558,3.5635,3.5698,3.5777,3.5827,3.5911,3.5936,3.5984,3.5985,3.6008,3.611,3.6156,3.6231,3.626,3.6261,3.6381,3.6364,3.6339,3.6289,3.639,3.6434,3.6451,3.6223,3.6221,3.622,3.6219,0,0,3.5709,3.5794,3.5817,3.5852,3.592,3.598,3.6062,3.6137,3.6177,3.6233,3.6302,3.6403,3.638,3.6422,3.6428,3.6483,3.6587,3.6451,3.6453,3.6474,3.672,3.6737,3.6758,3.6579,3.6582,3.6585,3.6714,0,3.5838,3.5985,3.5999,3.613,3.6201,3.619,3.6261,3.631,3.6333,3.6395,3.642,3.6491,3.6456,3.6481,3.6535,3.6563,3.6636,3.6554,3.6641,3.6644,3.6626,3.678,3.68,3.692,3.6731,3.6734,3.6736,0,3.6008,3.607,3.6209,3.6266,3.6296,3.636,3.6428,3.6489,3.6543,3.6555,3.6602,3.66,3.6683,3.663,3.6744,3.6688,3.6724,3.6743,3.6748,3.6756,3.6696,3.6792,3.6959,3.6976,3.6763,3.6761,3.6759,0,3.6104,3.6221,3.6319,3.635,3.6419,3.6464,3.6495,3.6545,3.6589,3.6648,3.6675,3.6743,3.678,3.6832,3.6847,3.6808,3.696,3.6909,3.6972,3.6971,3.7004,3.7002,3.7178,3.7029,3.7028,3.7028,3.7028,0,3.6246,3.6331,3.6363,3.6423,3.6517,3.6531,3.6623,3.6651,3.6696,3.676,3.6754,3.6814,3.6832,3.6894,3.6907,3.6999,3.7015,3.7027,3.7029,3.7027,3.7026,3.7051,3.7043,3.7033,3.7032,3.7031,3.703,0,3.6368,3.6393,3.6499,3.6556,3.6572,3.6639,3.6686,3.6743,3.6765,3.6846,3.6866,3.6899,3.6972,3.6993,3.7081,3.7089,3.7197,3.7191,3.7179,3.7179,3.724,3.7234,3.7438,3.7465,3.7299,3.73,3.7301,0,3.6457,3.6522,3.6586,3.6629,3.6661,3.6731,3.6775,3.679,3.6836,3.6902,3.6951,3.7023,3.7082,3.7199,3.723,3.7297,3.7293,3.736,3.7303,3.7298,3.7293,3.7288,3.7294,3.7371,3.7372,3.7374,3.7375,0,3.6611,3.662,3.6685,3.6753,3.6806,3.6861,3.6913,3.6948,3.6971,3.7022,3.7098,3.7143,3.7233,3.7304,3.7372,3.7401,3.7392,3.7393,3.7411,3.7409,3.7399,3.7404,3.7207,3.7388,3.7387,3.7386,3.7385,3.7384,3.6719,3.6776,3.683,3.6901,3.6942,3.6991,3.7047,3.7075,3.7139,3.7214,3.7219,3.73,3.735,3.744,3.7473,3.7536,3.7516,3.7542,3.7548,3.7554,3.7559,3.7389,3.7548,3.7548,3.7547,3.7547,3.7547,0,3.6872,3.6906,3.6972,3.7045,3.7101,3.7088,3.7145,3.7192,3.7264,3.7312,3.737,3.7456,3.7525,3.7561,3.763,3.7673,3.767,3.769,3.7686,3.7693,3.7574,3.7551,3.7691,3.7691,3.7691,3.7691,3.7691,3.7691,3.6959,3.7054,3.7069,3.7183,3.7216,3.7297,3.733,3.7374,3.7413,3.7509,3.7567,3.759,3.7634,3.7705,3.7767,3.7775,3.78,3.7823,3.7829,3.7717,3.7702,3.7688,3.7666,3.7828,3.7829,3.7943,3.7944,3.7945]}]]